Flag for Panama Weather past 2 weeks in Colón, Panama

Now
82 °F

Scattered clouds.


Feels Like: 91 °F
Forecast: 79 / 84 °F
Wind: 6 mph from Northwest

Location: Marcos A. Gelabert

Current Time: Aug 1, 2015 at 9:31:16 AM

Latest Report: Aug 1, 2015 at 9:00 AM


Visibility: 6 mi

Pressure: 29.86 "Hg

Humidity: 84%

Dew point: 77 °F

Location of ColónLocation

Historic Weather in Colón — Graph

°F

Colón temperature yesterday

Maximum temperature yesterday: 90 °F (at 12:00 PM)
Minimum temperature yesterday: 77 °F (at 7:00 AM)
Average temperature yesterday: 85 °F

Past Weeks' High & Low Weather Summary

 TemperatureHumidityPressure
High95 °F (Jul 17, 3:00 PM)94% (Jul 17, 10:00 PM)29.95 "Hg (Jul 17, 10:00 PM)
Low75 °F (Jul 21, 6:00 AM)53% (Jul 17, 3:00 PM)29.71 "Hg (Jul 27, 4:00 PM)
Average83 °F79%29.85 "Hg
* Reported Jul 17 8:00 AM — Aug 1 8:00 AM, Colón, Weather by CustomWeather, © 2015

Note: Actual official high and low records may vary slightly from our data, if they occured in-between our weather recording intervals... More about our weather records

Advertising

Colón weather history for previous 24 hours

 ConditionsComfort  
Time TempWeatherWind HumidityBarometerVisibility
8:00 AM
Sat, Aug 1
81 °FScattered clouds.5 mph89%29.86 "Hg6 mi
7:00 AM79 °FPartly sunny.5 mph89%29.83 "Hg6 mi
6:00 AM79 °FPassing clouds.3 mph89%29.83 "Hg6 mi
10:00 PM
Fri, Jul 31
81 °FPassing clouds.12 mph84%29.89 "HgN/A
9:00 PM82 °FPassing clouds.7 mph84%29.86 "HgN/A
8:00 PM82 °FPassing clouds.14 mph84%29.83 "HgN/A
7:00 PM84 °FPassing clouds.8 mph79%29.83 "HgN/A
6:00 PM86 °FScattered clouds.12 mph70%29.80 "HgN/A
5:00 PM88 °FScattered clouds.14 mph62%29.77 "HgN/A
4:00 PM90 °FPassing clouds.12 mph59%29.80 "HgN/A
3:00 PM90 °FPassing clouds.14 mph55%29.80 "Hg6 mi
2:00 PM90 °FScattered clouds.14 mph59%29.83 "Hg6 mi
1:00 PM90 °FScattered clouds.8 mph59%29.86 "Hg6 mi
12:00 PM90 °FScattered clouds.6 mph59%29.86 "Hg6 mi
11:00 AM86 °FScattered clouds.7 mph66%29.89 "Hg6 mi
10:00 AM84 °FScattered clouds.5 mph74%29.89 "Hg6 mi
9:00 AM82 °FPassing clouds.5 mph84%29.89 "Hg6 mi
Weather by CustomWeather, © 2015

See weather overviewHow to use our weather pages